Retour au catalogue

STARLINK-6375

ActifCommunicationsVLEO
NORAD 57342·PAYLOAD·🇺🇸 United States

Lancé Jul 16, 2023 depuis Cape Canaveral Space Force Station

Loading…

Prochains Passages (prochaines 24 heures)

TLE

FraisSource: CelesTrak SupGP

Époque: Sep 14, 2026, 20:40 UTC

1 57342C 23099Q   26257.86159722  .00016046  00000+0  58132-3 0  2571
2 57342  42.9993 260.7439 0001277 261.1290 209.1845 15.27564089    15

Suivez STARLINK-6375 en temps réel avec AllMySat

Download on the App Store